This demonstration page uses our WeatherBlox Daily Observations layout. Learn more.

Left ArrowRight Arrow

36.19886, -115.1175

Hourly Observations for May 4, 2020

Temp ( °F °C ) Dew Point ( °F °C ) Humidity (%) Winds ( mph kmh ) Pressure ( in mb ) Visibility ( mi km ) Precip ( " mm )
12:53 am 00:53 Clear 78 25.6 25 -3.9 14 14 NW 12 19 29.87 1012 10 16 N/A
1:53 am 01:53 Clear 79 26.1 22 -5.6 12 12 NW 22 35 29.85 1011 10 16 N/A
2:53 am 02:53 Clear 78 25.6 21 -6.1 12 12 NW 24 39 29.85 1011 10 16 N/A
3:53 am 03:53 Clear 74 23.3 21 -6.1 14 14 N 10 17 29.91 1013 10 16 N/A
4:53 am 04:53 Clear 74 23.3 21 -6.1 14 14 NW 20 31 29.93 1013 10 16 N/A
5:53 am 05:53 Sunny 74 23.3 21 -6.1 14 14 NNW 14 22 29.97 1015 10 16 N/A
6:53 am 06:53 Sunny 74 23.3 23 -5 15 15 NNW 16 26 30.00 1016 10 16 N/A
7:53 am 07:53 Sunny 76 24.4 23 -5 14 14 N 12 19 30.04 1017 10 16 N/A
8:53 am 08:53 Sunny 77 25 23 -5 13 13 NNW 16 26 30.06 1018 10 16 N/A
9:53 am 09:53 Sunny 80 26.7 22 -5.6 11 11 NNW 18 30 30.06 1018 10 16 N/A
10:53 am 10:53 Sunny 82 27.8 24 -4.4 12 12 E 7 11 30.07 1018 10 16 N/A
11:53 am 11:53 Sunny 84 28.9 22 -5.6 10 10 NE 6 9 30.06 1018 N/A N/A
12:53 pm 12:53 Sunny 84 28.9 20 -6.7 9 9 VRB 7 11 30.04 1017 10 16 N/A
1:53 pm 13:53 Sunny 85 29.4 20 -6.7 9 9 VRB 5 7 30.02 1017 10 16 N/A
2:53 pm 14:53 Sunny 87 30.6 21 -6.1 9 9 ESE 10 17 29.99 1016 10 16 N/A
3:53 pm 15:53 Sunny 87 30.6 19 -7.2 8 8 undefined N/A 29.98 1015 10 16 N/A
4:53 pm 16:53 Sunny 89 31.7 19 -7.2 7 7 VRB 3 6 29.96 1015 10 16 N/A
5:53 pm 17:53 Sunny 89 31.7 18 -7.8 7 7 VRB 3 6 29.95 1014 10 16 N/A
6:53 pm 18:53 Sunny 86 30 19 -7.2 8 8 E 7 11 29.96 1015 10 16 N/A
7:53 pm 19:53 Clear 83 28.3 19 -7.2 9 9 E 5 7 29.97 1015 10 16 N/A
8:53 pm 20:53 Clear 83 28.3 14 -10 7 7 NNW 7 11 29.98 1015 10 16 N/A
9:53 pm 21:53 Clear 80 26.7 15 -9.4 8 8 N 5 7 30.01 1016 10 16 N/A
10:53 pm 22:53 Clear 77 25 17 -8.3 10 10 N 7 11 30.02 1017 10 16 N/A
11:53 pm 23:53 Clear 74 23.3 19 -7.2 12 12 NW 5 7 30.02 1017 10 16 N/A

Powered by AerisWeather